GJVV0G Weather Reports


time (UTC)temp
F
wind
direction
speed
knots
gust
knots
rain 1hr
in
rain 24hr
in
rain mn
in
humidity
%
barometer
mb
20260504011027 64 348 2.6 3.5 0.00 0.00 0.00 34 1007.1
20260504010028 64 336 0.0 0.0 0.00 0.00 0.00 36 1006.9
20260504005028 67 360 0.0 2.6 0.00 0.00 0.00 31 1006.8
20260504003027 66 334 0.9 1.7 0.00 0.00 0.00 37 1006.7
20260504002027 66 343 1.7 3.5 0.00 0.00 0.00 37 1006.6
20260504001028 70 342 1.7 3.5 0.00 0.00 0.00 31 1006.4
20260503234027 71 339 0.0 0.9 0.00 0.00 0.00 30 1006.6
20260503232027 71 96 1.7 4.3 0.00 0.00 0.00 28 1006.4
20260503231030 71 157 5.2 8.7 0.00 0.00 0.00 30 1006.4
20260503230044 71 141 3.5 6.1 0.00 0.00 0.00 30 1006.4
20260503225129 71 173 1.7 5.2 0.00 0.00 0.00 30 1006.4
20260503224143 71 150 5.2 7.8 0.00 0.00 0.00 30 1006.4
20260503223127 71 109 0.9 4.3 0.00 0.00 0.00 28 1006.3
20260503215127 71 144 2.6 4.3 0.00 0.00 0.00 31 1006.4
20260503214128 71 150 6.1 9.6 0.00 0.00 0.00 31 1006.4
20260503212227 71 150 2.6 4.3 0.00 0.00 0.00 30 1006.6
20260503211228 70 88 0.0 0.9 0.00 0.00 0.00 30 1006.6
20260503210326 70 117 2.6 6.1 0.00 0.00 0.00 30 1006.9
20260503205326 70 177 3.5 6.1 0.00 0.00 0.00 29 1007.0
20260503204328 70 144 8.7 12.2 0.00 0.00 0.00 31 1006.7
20260503203427 70 32 2.6 9.6 0.00 0.00 0.00 32 1006.7
20260503202428 70 326 0.0 1.7 0.00 0.00 0.00 33 1006.9
20260503201429 71 173 5.2 11.3 0.00 0.00 0.00 34 1007.1
20260503195427 70 165 3.5 7.0 0.00 0.00 0.00 33 1006.8
20260503194443 70 174 5.2 7.8 0.00 0.00 0.00 36 1006.9
20260503193527 70 129 4.3 9.6 0.00 0.00 0.00 34 1006.7
20260503192627 70 45 4.3 4.3 0.00 0.00 0.00 35 1007.0
20260503191630 70 146 7.0 9.6 0.00 0.00 0.00 35 1007.0
20260503190727 70 186 2.6 4.3 0.00 0.00 0.00 37 1007.1
20260503190628 70 174 4.3 6.1 0.00 0.00 0.00 38 1007.1
20260503185644 69 93 0.0 1.7 0.00 0.00 0.00 38 1007.2
20260503184726 69 11 3.5 7.8 0.00 0.00 0.00 37 1007.3
20260503183743 68 157 1.7 4.3 0.00 0.00 0.00 36 1007.4
20260503182728 68 164 6.1 10.4 0.00 0.00 0.00 38 1007.4
20260503181727 68 173 3.5 4.3 0.00 0.00 0.00 39 1007.5
20260503174727 66 276 0.9 2.6 0.00 0.00 0.00 39 1007.9
20260503172727 65 279 1.7 4.3 0.00 0.00 0.00 39 1008.0
20260503171728 66 67 4.3 5.2 0.00 0.00 0.00 41 1008.0
20260503170827 65 247 0.0 0.0 0.00 0.00 0.00 40 1008.0
20260503150926 61 334 2.6 9.6 0.00 0.00 0.00 40 1008.7
20260503140126 59 290 6.1 7.8 0.00 0.00 0.00 46 1009.1
20260503131328 57 277 0.9 2.6 0.00 0.00 0.00 48 1009.7
20260503130327 57 18 6.1 12.2 0.00 0.00 0.00 49 1009.6
20260503110427 55 314 1.7 6.1 0.00 0.00 0.00 48 1009.6
20260503080827 0 0 0.0 0.0 0.00 0.00 0.00 100
20260503072827 0 0 0.0 0.0 0.00 0.00 0.00 100
20260503072742 0 0 0.0 0.0 0.00 0.00 0.00 100
20260503071826 55 180 2.6 2.6 0.00 0.00 0.00 41 1012.7
20260503070828 54 292 3.5 3.5 0.00 0.00 0.00 42 1012.8
20260503054919 54 315 0.0 0.0 0.00 0.00 0.00 46 1013.4
20260503054017 52 279 0.9 0.9 0.00 0.00 0.00 53 1013.3
20260503053017 49 337 2.6 2.6 0.00 0.00 0.00 59 1013.6
20260503052018 49 337 0.9 0.9 0.00 0.00 0.00 60 1013.6
20260503051116 49 337 2.6 2.6 0.00 0.00 0.00 61 1013.7
20260503045127 49 315 2.6 2.6 0.00 0.00 0.00 59 1013.7
20260503044226 49 337 0.9 0.9 0.00 0.00 0.00 59 1013.7
20260503043226 49 337 1.7 1.7 0.00 0.00 0.00 60 1013.8
20260503042226 49 337 3.5 3.5 0.00 0.00 0.00 62 1014.0
20260503041242 0 0 0.0 0.0 0.00 0.00 0.00 100
20260503035329 0 0 0.0 0.0 0.00 0.00 0.00 100
20260503034327 0 0 0.0 0.0 0.00 0.00 0.00 100
20260503033328 0 0 0.0 0.0 0.00 0.00 0.00 100
20260503032326 51 337 2.6 2.6 0.00 0.00 0.00 58 1014.5
20260503031425 51 315 3.5 4.3 0.00 0.00 0.00 60 1014.4
20260503031342 0 0 0.0 0.0 0.00 0.00 0.00 100
20260503030327 51 337 1.7 1.7 0.00 0.00 0.00 58 1014.7
20260503025327 52 337 2.6 2.6 0.00 0.00 0.00 55 1014.7
20260503024327 52 319 0.0 3.5 0.00 0.00 0.00 55 1014.8
20260503023425 52 252 0.9 2.6 0.00 0.00 0.00 58 1014.8
20260503022428 0 0 0.0 0.0 0.00 0.00 0.00 100
20260503021426 0 0 0.0 0.0 0.00 0.00 0.00 100
20260503020514 52 337 0.0 0.0 0.00 0.00 0.00 56 1014.9
20260503015516 53 360 2.6 2.6 0.00 0.00 0.00 54 1014.9
20260503014613 53 337 2.6 2.6 0.00 0.00 0.00 52 1014.9
20260503012616 53 22 0.0 0.0 0.00 0.00 0.00 54 1014.9